San Angelo, TX

9:07 AM CDT on May 24, 2017 (GMT -0500)
San Angelo Regional-Mathis

Weather History for KSJT - November, 2013

Change the Weather History Date:

Monday, November 25, 2013

  Actual Average Record
Temperature  
Mean Temperature 36 °F 52 °F  
Max Temperature 39 °F 65 °F 90 °F (1965)
Min Temperature 32 °F 38 °F 19 °F (1996)
Degree Days  
Heating Degree Days 29 14  
Month to date heating degree days 293 236  
Since 1 July heating degree days 375 327  
Cooling Degree Days 0 0  
Month to date cooling degree days 9 15  
Year to date cooling degree days 2860 2499  
Moisture  
Dew Point 32 °F    
Average Humidity 88    
Maximum Humidity 96    
Minimum Humidity 79    
Precipitation  
Precipitation 0.01 in 0.02 in 0.52 in (1986)
Month to date precipitation 0.81 1.00  
Year to date precipitation 18.65 20.26  
Snow  
Snow 0.00 in 0.00 in T in (2007)
Month to date snowfall T 0.2  
Since 1 July snowfall T 0.2  
Snow Depth 0.00 in    
Sea Level Pressure  
Sea Level Pressure 30.20 in    
Wind  
Wind Speed 5 mph (North)    
Max Wind Speed 14 mph    
Max Gust Speed 16 mph    
Visibility 10 miles    
Events Rain    
T = Trace of Precipitation, MM = Missing Value Source: NWS Daily Summary

Daily Weather History Graph

Daily Weather History Graph

Search for Another Location

Airport or City:

Trip Planner

Search our weather history database for the weather conditions in past years. The results will help you decide how hot, cold, wet, or windy it might be!

Date:

Astronomy

Nov. 25, 2013 Rise Set
Actual Time 7:18 AM CST 5:39 PM CST
Civil Twilight 6:52 AM CST 6:05 PM CST
Nautical Twilight 6:22 AM CST 6:35 PM CST
Astronomical Twilight 5:53 AM CST 7:04 PM CST
Moon No Moon Rise 12:51 PM CST (11/25)
Length of Visible Light 11h 13m
Length of Day
10h 21m
Waning Gibbous, 51% of the Moon is Illuminated
Nov 25
Waning Gibbous
Nov 25
Last Quarter
Dec 2
New
Dec 9
First Quarter
Dec 17
Full

Hourly Weather History & Observations

Time (CST) Temp. Windchill Dew Point Humidity Pressure Visibility Wind Dir Wind Speed Gust Speed Precip Events Conditions
12:23 AM 33.8 °F 28.6 °F 30.2 °F 87% 30.27 in 6.0 mi ESE 5.8 mph - 0.00 in Rain Light Rain
12:35 AM 32.0 °F 27.5 °F 30.2 °F 93% 30.27 in 4.0 mi East 4.6 mph - 0.00 in Rain Light Freezing Rain
12:51 AM 32.0 °F 27.5 °F 30.0 °F 92% 30.31 in 4.0 mi East 4.6 mph - 0.00 in Rain Light Freezing Rain
1:03 AM 32.0 °F 28.7 °F 30.2 °F 93% 30.24 in 6.0 mi ENE 3.5 mph - 0.01 in Rain Light Freezing Rain
1:19 AM 32.0 °F 28.7 °F 30.2 °F 93% 30.24 in 10.0 mi East 3.5 mph - 0.01 in   Overcast
1:32 AM 32.0 °F - 30.2 °F 93% 30.24 in 10.0 mi Calm Calm - 0.01 in   Overcast
1:51 AM 32.0 °F - 30.0 °F 92% 30.27 in 10.0 mi Calm Calm - 0.01 in   Overcast
2:00 AM 32.0 °F - 30.2 °F 93% 30.23 in 10.0 mi Calm Calm - N/A   Overcast
2:16 AM 32.0 °F 28.7 °F 30.2 °F 93% 30.21 in 10.0 mi NE 3.5 mph - N/A   Overcast
2:51 AM 32.0 °F 27.5 °F 30.9 °F 96% 30.25 in 10.0 mi SE 4.6 mph - N/A   Overcast
3:35 AM 33.8 °F - 30.2 °F 87% 30.20 in 10.0 mi Calm Calm - N/A   Overcast
3:51 AM 33.1 °F - 30.9 °F 92% 30.24 in 10.0 mi Calm Calm - N/A   Overcast
4:51 AM 33.1 °F - 30.9 °F 92% 30.22 in 10.0 mi Calm Calm - N/A   Overcast
5:51 AM 33.1 °F - 32.0 °F 96% 30.21 in 10.0 mi Calm Calm - N/A   Overcast
6:51 AM 34.0 °F - 32.0 °F 92% 30.20 in 10.0 mi Calm Calm - N/A   Overcast
7:30 AM 33.8 °F - 32.0 °F 93% 30.16 in 10.0 mi Calm Calm - N/A   Overcast
7:51 AM 33.1 °F - 32.0 °F 96% 30.20 in 9.0 mi Calm Calm - N/A   Overcast
8:51 AM 35.1 °F - 32.0 °F 89% 30.21 in 10.0 mi Calm Calm - N/A   Overcast
9:17 AM 35.6 °F 31.7 °F 32.0 °F 87% 30.18 in 10.0 mi SW 4.6 mph - N/A   Overcast
9:51 AM 36.0 °F 32.1 °F 33.1 °F 89% 30.22 in 10.0 mi West 4.6 mph - N/A   Overcast
10:16 AM 35.6 °F 32.8 °F 32.0 °F 87% 30.18 in 10.0 mi West 3.5 mph - N/A   Overcast
10:51 AM 37.0 °F 33.3 °F 32.0 °F 82% 30.22 in 10.0 mi WNW 4.6 mph - N/A   Overcast
11:51 AM 37.9 °F 32.1 °F 33.1 °F 83% 30.20 in 10.0 mi West 8.1 mph - N/A   Overcast
12:51 PM 39.0 °F 32.8 °F 34.0 °F 82% 30.16 in 10.0 mi NW 9.2 mph - N/A   Overcast
1:15 PM 39.2 °F 35.0 °F 33.8 °F 81% 30.11 in 10.0 mi WNW 5.8 mph - N/A   Overcast
1:36 PM 39.2 °F 33.6 °F 33.8 °F 81% 30.10 in 10.0 mi WNW 8.1 mph - N/A   Overcast
1:51 PM 39.0 °F 33.4 °F 33.1 °F 79% 30.13 in 10.0 mi NW 8.1 mph - N/A   Overcast
2:51 PM 39.0 °F 33.4 °F 33.1 °F 79% 30.14 in 10.0 mi WNW 8.1 mph - N/A   Overcast
3:51 PM 37.9 °F 30.0 °F 33.1 °F 83% 30.14 in 10.0 mi NNW 12.7 mph - N/A   Overcast
4:51 PM 37.9 °F 30.9 °F 33.1 °F 83% 30.17 in 10.0 mi NW 10.4 mph - N/A   Overcast
5:43 PM 37.4 °F 30.8 °F 32.0 °F 81% 30.14 in 10.0 mi NW 9.2 mph - N/A   Overcast
5:51 PM 37.9 °F 31.5 °F 33.1 °F 83% 30.18 in 10.0 mi NW 9.2 mph - N/A   Overcast
6:51 PM 37.9 °F 35.5 °F 33.1 °F 83% 30.18 in 10.0 mi East 3.5 mph - N/A   Overcast
7:51 PM 37.9 °F 33.5 °F 33.1 °F 83% 30.19 in 9.0 mi East 5.8 mph - N/A   Overcast
8:08 PM 37.4 °F 32.1 °F 33.8 °F 87% 30.15 in 10.0 mi ENE 6.9 mph - N/A   Overcast
8:51 PM 37.0 °F 31.6 °F 33.1 °F 86% 30.20 in 10.0 mi NE 6.9 mph - N/A   Overcast
9:51 PM 37.9 °F 31.5 °F 33.1 °F 83% 30.20 in 10.0 mi NNE 9.2 mph - N/A   Overcast
10:51 PM 37.9 °F 31.5 °F 33.1 °F 83% 30.21 in 10.0 mi NNE 9.2 mph - N/A   Overcast
11:17 PM 37.4 °F 32.8 °F 33.8 °F 87% 30.19 in 10.0 mi NNE 5.8 mph - N/A   Overcast
11:25 PM 37.4 °F 30.8 °F 33.8 °F 87% 30.19 in 10.0 mi NE 9.2 mph - N/A   Overcast
11:51 PM 37.0 °F 31.6 °F 33.1 °F 86% 30.22 in 10.0 mi NE 6.9 mph - N/A   Overcast